486  
ASUS41 KALY 222310  
RWRALY  
 
NEW YORK STATE HOURLY WEATHER ROUNDUP  
NATIONAL WEATHER SERVICE ALBANY NY  
600 PM EST FRI FEB 22 2019  
 
NOTE: "FAIR" INDICATES FEW OR NO CLOUDS BELOW 12,000 FEET WITH NO  
SIGNIFICANT WEATHER AND/OR NO S TO VISIBILITY
.  
 
NYZ032-033-038>043-046>054-057>066-NYZ062>081-082-084-230000-  
EAST  
 
 
CITY SKY/WX TMP DP RH WIND PRES REMARKS
 
ALBANY MOCLDY 34 19 54 NW8 30.43R WCI 27  
GLENS FALLS FAIR 34 18 52 N9 30.39R WCI 27  
POUGHKEEPSIE FAIR 37 22 54 N6 30.40R WCI 32  
NEWBURGH MOCLDY 36 25 64 NW7 30.40R WCI 30  
MONTGOMERY FAIR 35 22 58 NW6 30.38R WCI 30  
WHITE PLAINS FAIR 38 21 50 NW9 30.36R WCI 31  
ISLIP CLOUDY 38 23 55 N6 30.38R WCI 33  
NEW YORK CITY CLOUDY 41 22 46 NW12 30.39R  
CENTRAL PARK FAIR 42 21 43 MISG 30.41R  

 
 
NYZ005>009-017-018-044>046-055-056-230000-  
CENTRAL  
 
 
CITY SKY/WX TMP DP RH WIND PRES REMARKS
 
FULTON CLOUDY 33 19 56 W5 30.46R WCI 29  
SYRACUSE CLOUDY 32 20 61 NW8 30.46S WCI 25  
ROME CLOUDY 32 18 56 NW7 30.45R WCI 26  
ELMIRA FAIR 33 22 63 NE6 30.41S WCI 28  
BINGHAMTON CLOUDY 28 20 71 N10 30.37S WCI 19  
MONTICELLO MOCLDY 30 22 72 NW9 30.38R WCI 22  

 
 
NYZ026>034-041>043-087-230000-  
NORTH  
 
 
CITY SKY/WX TMP DP RH WIND PRES REMARKS
 
WATERTOWN CLOUDY 31 23 72 SW6 30.45R WCI 25  
FORT DRUM NOT AVBL  
OGDENSBURG CLOUDY 30 19 64 CALM 30.41S  
MASSENA FAIR 28 16 60 SW5 30.45S WCI 23  
SARANAC LAKE CLOUDY 24 16 71 CALM 30.34R  
PLATTSBURGH FAIR 30 16 56 VRB3 30.42R  

 
 
NYZ001>004-010>016-019>021-085-230000-  
WEST  
 
 
CITY SKY/WX TMP DP RH WIND PRES REMARKS
 
NIAGARA FALLS FAIR 32 21 64 N3 30.43S  
BUFFALO MOCLDY 33 22 63 CALM 30.42F  
DUNKIRK FAIR 30 21 69 N5 30.43S WCI 25  
JAMESTOWN FAIR 30 22 72 N5 30.36 WCI 25  
WELLSVILLE FAIR 30 19 63 CALM 30.35F  
ROCHESTER CLOUDY 34 24 67 N3 30.44S  
PENN YAN CLOUDY 32 24 72 CALM 30.43S  

 
 
KEY  
WCI = WIND CHILL INDEX  
VSB = VISIBILITY  
HX = HEAT INDEX  

 
 
 
CLICK HERE TO GO TO PREVIOUS BULLETINS.

The Nexlab NY Page
The Nexlab VT Page
The Nexlab MA Page
The Nexlab CT Page Main Text Page